map of LIL home
Great Circle Mapper logo
LIL - Airport
Location
City:  Lille, France
Name:Lesquin
ICAO / IATA:LFQQ / LIL

Details
Type:Airport (Aerodrome, Airfield)
Use:Public/Civil, International (customs port of entry)
Latitude:5033'48"N (50.563333)
Longitude:305'13"E (3.086944)
Elevation:157 ft (48 m)
Variation:0.35E (WMM2015 magnetic declination)
0.14 annual change
Runways:2
Longest:9268 × 148 ft (2825 × 45 m)

Time
Time Zone:UTC+1 (DST+2)
Local Time:

Weather
METAR:LFQQ 281130Z 24016KT 9999 BKN029 BKN041 15/09 Q1015 NOSIG
TAF:LFQQ 281100Z 2812/2918 25012KT 9999 BKN030
TEMPO 2812/2818 25015G25KT
TEMPO 2905/2908 BKN012
TEMPO 2910/2918 24015G25KT
TEMPO 2915/2918 3000 SHRA BKN008 BKN015TCU

Related Locations
Nearby:
Farthest:CHT: 11963 mi / 19252 km
Waitangi [Tuuta], Chatham Islands, NZ

Find:

   beyond  
but within

Other Information
Maps:
NOTAMs:
Links:
Sources:

  
flag of France   

Sectional Chart

Flight Planning
at skyvector.com

Satellite Image

Google Maps Satellite View

 

Copyright © 2004-2015 Karl L. Swartz. All rights reserved.
The Great Circle Mapper name and logo are trademarks of the Great Circle Mapper.
All other trademarks mentioned herein belong to their respective owners.
Please see credits for attibutions and further copyright information.

  Follow gcmap on Facebook Follow gcmap on Twitter Follow gcmap on Google+

hCard Microformat

Geo Microformat